Find Starlink 34399

NORAD ID: 64444 Int'l Des: 2025-130 Owner: SPXS Country: US Constellation: starlink operational
LEOCIRCULAR

現在のビュー

3D地球を読み込み中...

About Starlink 34399

Starlink 34399 (NORAD 64444) is a starlink constellation satellite (v2 mini) launched Jun 18, 2025 by SPXS of US. It operates in LEO, CIRCULAR orbit with a mass of 575.00 kg.

次回通過

Passes for default location (London). Set your location on the main map for personalized predictions.

高度履歴

Loading altitude history...

軌道要素

1 64444U 25130G 26263.00847552 .00015775 00000-0 47719-3 0 9999
2 64444 53.1538 261.7240 0002502 91.4793 268.6496 15.34387989 70514
Epoch: Sep 20, 2026 • Age: 17 hours

現在のステータス

高度 462.4 km
遠地点 / 近地点 N/A
速度 7.64 km/s
衛星直下点 16.85°N, 9.42°E
打ち上げ日 Jun 18, 2025
運用期間 1.2 years
タイプ internet

技術仕様

分類 Payload
質量 575.00 kg
乾燥質量 530.00 kg
長さ 0.30 m
スパン 29.00 m
形状 ? Box + pan
製造者 SPXS
バスタイプ Starlink V2MO
フェーズステータス In Orbit
所有者/国 SPXS/US

Most Searched